| time (UTC) | temp F | wind direction | speed MPH | gust MPH | rain 1hr in | rain 24hr in | rain mn in | humidity % | barometer mb |
| 20260906223904 | 62 | 277 | 0.0 | 0.0 | 0.00 | 0.00 | 0.00 | 88 | 1016.2 |
| 20260906223404 | 62 | 277 | 0.0 | 0.0 | 0.00 | 0.00 | 0.00 | 87 | 1016.2 |
| 20260906222905 | 62 | 277 | 0.0 | 0.0 | 0.00 | 0.00 | 0.00 | 87 | 1016.3 |
| 20260906222404 | 62 | 277 | 0.0 | 0.0 | 0.00 | 0.00 | 0.00 | 87 | 1016.3 |
| 20260906221904 | 62 | 277 | 0.0 | 0.0 | 0.00 | 0.00 | 0.00 | 87 | 1016.3 |
| 20260906221404 | 62 | 277 | 0.0 | 0.0 | 0.00 | 0.00 | 0.00 | 87 | 1016.3 |
| 20260906220904 | 62 | 277 | 0.0 | 0.0 | 0.00 | 0.00 | 0.00 | 87 | 1016.4 |
| 20260906220404 | 62 | 277 | 0.0 | 0.0 | 0.00 | 0.00 | 0.00 | 87 | 1016.4 |
| 20260906215905 | 62 | 277 | 0.0 | 0.0 | 0.00 | 0.00 | 0.00 | 86 | 1016.4 |
| 20260906215404 | 62 | 277 | 0.0 | 0.0 | 0.00 | 0.00 | 0.00 | 86 | 1016.4 |
| 20260906214904 | 62 | 278 | 0.0 | 0.0 | 0.00 | 0.00 | 0.00 | 86 | 1016.5 |
| 20260906213905 | 63 | 278 | 0.0 | 0.0 | 0.00 | 0.00 | 0.00 | 86 | 1016.5 |
| 20260906213404 | 63 | 278 | 0.0 | 0.0 | 0.00 | 0.00 | 0.00 | 85 | 1016.5 |
| 20260906212904 | 63 | 278 | 0.0 | 0.0 | 0.00 | 0.00 | 0.00 | 85 | 1016.5 |
| 20260906212405 | 63 | 278 | 0.0 | 0.0 | 0.00 | 0.00 | 0.00 | 85 | 1016.5 |
| 20260906211904 | 63 | 278 | 0.0 | 0.0 | 0.00 | 0.00 | 0.00 | 84 | 1016.5 |
| 20260906211405 | 63 | 278 | 0.0 | 0.0 | 0.00 | 0.00 | 0.00 | 84 | 1016.6 |
| 20260906210404 | 64 | 278 | 0.0 | 1.0 | 0.00 | 0.00 | 0.00 | 83 | 1016.6 |
| 20260906205904 | 64 | 278 | 0.0 | 0.0 | 0.00 | 0.00 | 0.00 | 83 | 1016.6 |
| 20260906205405 | 64 | 278 | 0.0 | 0.0 | 0.00 | 0.00 | 0.00 | 82 | 1016.6 |
| 20260906204904 | 65 | 278 | 1.0 | 2.0 | 0.00 | 0.00 | 0.00 | 81 | 1016.6 |
| 20260906204404 | 65 | 278 | 0.0 | 3.0 | 0.00 | 0.00 | 0.00 | 80 | 1016.7 |
| 20260906203404 | 66 | 125 | 0.0 | 0.0 | 0.00 | 0.00 | 0.00 | 79 | 1016.7 |
| 20260906202404 | 66 | 68 | 1.0 | 3.0 | 0.00 | 0.00 | 0.00 | 79 | 1016.7 |
| 20260906201905 | 66 | 352 | 0.0 | 1.0 | 0.00 | 0.00 | 0.00 | 79 | 1016.7 |
| 20260906200404 | 67 | 161 | 2.0 | 5.0 | 0.00 | 0.00 | 0.00 | 77 | 1016.6 |
| 20260906195404 | 67 | 144 | 0.0 | 6.0 | 0.00 | 0.00 | 0.00 | 77 | 1016.6 |
| 20260906194904 | 67 | 116 | 1.0 | 6.0 | 0.00 | 0.00 | 0.00 | 77 | 1016.6 |
| 20260906194404 | 67 | 141 | 1.0 | 8.0 | 0.00 | 0.00 | 0.00 | 78 | 1016.8 |
| 20260906193905 | 67 | 99 | 2.0 | 8.0 | 0.00 | 0.00 | 0.00 | 78 | 1016.8 |
| 20260906192904 | 67 | 210 | 1.0 | 3.0 | 0.00 | 0.00 | 0.00 | 77 | 1016.5 |
| 20260906192404 | 67 | 171 | 2.0 | 7.0 | 0.00 | 0.00 | 0.00 | 78 | 1016.5 |
| 20260906191904 | 67 | 122 | 0.0 | 7.0 | 0.00 | 0.00 | 0.00 | 78 | 1016.4 |
| 20260906191404 | 67 | 126 | 2.0 | 7.0 | 0.00 | 0.00 | 0.00 | 78 | 1016.4 |
| 20260906190904 | 66 | 106 | 3.0 | 5.0 | 0.00 | 0.00 | 0.00 | 79 | 1016.7 |
| 20260906185904 | 67 | 108 | 0.0 | 0.0 | 0.00 | 0.00 | 0.00 | 79 | 1016.7 |
| 20260906185404 | 67 | 60 | 1.0 | 2.0 | 0.00 | 0.00 | 0.00 | 78 | 1016.7 |
| 20260906184405 | 67 | 95 | 1.0 | 5.0 | 0.00 | 0.00 | 0.00 | 76 | 1016.8 |
| 20260906183904 | 68 | 108 | 0.0 | 0.0 | 0.00 | 0.00 | 0.00 | 75 | 1016.8 |
| 20260906183404 | 68 | 110 | 0.0 | 0.0 | 0.00 | 0.00 | 0.00 | 75 | 1016.8 |
| 20260906182904 | 69 | 102 | 0.0 | 2.0 | 0.00 | 0.00 | 0.00 | 74 | 1016.8 |
| 20260906182405 | 69 | 101 | 1.0 | 5.0 | 0.00 | 0.00 | 0.00 | 74 | 1016.8 |
| 20260906181405 | 69 | 69 | 2.0 | 6.0 | 0.00 | 0.00 | 0.00 | 73 | 1016.8 |
| 20260906180904 | 69 | 78 | 1.0 | 5.0 | 0.00 | 0.00 | 0.00 | 73 | 1016.8 |
| 20260906180404 | 69 | 80 | 1.0 | 3.0 | 0.00 | 0.00 | 0.00 | 73 | 1016.9 |
| 20260906174904 | 70 | 54 | 2.0 | 6.0 | 0.00 | 0.00 | 0.00 | 72 | 1016.9 |
| 20260906174404 | 70 | 78 | 2.0 | 7.0 | 0.00 | 0.00 | 0.00 | 72 | 1017.0 |
| 20260906173904 | 70 | 147 | 2.0 | 6.0 | 0.00 | 0.00 | 0.00 | 71 | 1017.0 |
| 20260906172904 | 70 | 79 | 2.0 | 5.0 | 0.00 | 0.00 | 0.00 | 72 | 1016.9 |
| 20260906172404 | 71 | 138 | 4.0 | 6.0 | 0.00 | 0.00 | 0.00 | 72 | 1016.9 |
| 20260906171904 | 71 | 114 | 3.0 | 10.0 | 0.00 | 0.00 | 0.00 | 72 | 1018.2 |
| 20260906171404 | 71 | 93 | 3.0 | 9.0 | 0.00 | 0.00 | 0.00 | 72 | 1018.2 |
| 20260906170904 | 71 | 115 | 3.0 | 8.0 | 0.00 | 0.00 | 0.00 | 72 | 1018.2 |
| 20260906165904 | 71 | 88 | 3.0 | 12.0 | 0.00 | 0.00 | 0.00 | 72 | 1018.2 |
| 20260906165404 | 71 | 105 | 5.0 | 9.0 | 0.00 | 0.00 | 0.00 | 72 | 1018.2 |
| 20260906164404 | 71 | 126 | 3.0 | 7.0 | 0.00 | 0.00 | 0.00 | 72 | 1018.2 |
| 20260906163904 | 71 | 206 | 2.0 | 9.0 | 0.00 | 0.00 | 0.00 | 73 | 1018.2 |
| 20260906163404 | 71 | 116 | 4.0 | 13.0 | 0.00 | 0.00 | 0.00 | 73 | 1018.2 |
| 20260906162404 | 71 | 87 | 6.0 | 9.0 | 0.00 | 0.00 | 0.00 | 73 | 1018.2 |
| 20260906161904 | 71 | 111 | 5.0 | 12.0 | 0.00 | 0.00 | 0.00 | 72 | 1018.2 |
| 20260906161404 | 71 | 116 | 6.0 | 13.0 | 0.00 | 0.00 | 0.00 | 72 | 1018.2 |
| 20260906160904 | 71 | 167 | 3.0 | 8.0 | 0.00 | 0.00 | 0.00 | 73 | 1018.2 |
| 20260906160405 | 71 | 101 | 3.0 | 7.0 | 0.00 | 0.00 | 0.00 | 73 | 1018.2 |
| 20260906155904 | 70 | 102 | 4.0 | 7.0 | 0.00 | 0.00 | 0.00 | 73 | 1018.2 |
| 20260906155405 | 70 | 131 | 1.0 | 5.0 | 0.00 | 0.00 | 0.00 | 72 | 1018.2 |
| 20260906153904 | 71 | 84 | 3.0 | 6.0 | 0.00 | 0.00 | 0.00 | 71 | 1018.2 |
| 20260906153405 | 71 | 95 | 3.0 | 7.0 | 0.00 | 0.00 | 0.00 | 70 | 1018.2 |
| 20260906152904 | 71 | 76 | 3.0 | 7.0 | 0.00 | 0.00 | 0.00 | 69 | 1018.3 |
| 20260906152404 | 71 | 133 | 3.0 | 8.0 | 0.00 | 0.00 | 0.00 | 69 | 1018.8 |
| 20260906151404 | 71 | 77 | 2.0 | 5.0 | 0.00 | 0.00 | 0.00 | 70 | 1018.8 |
| 20260906150904 | 71 | 119 | 2.0 | 3.0 | 0.00 | 0.00 | 0.00 | 70 | 1018.8 |
| 20260906150404 | 71 | 168 | 2.0 | 8.0 | 0.00 | 0.00 | 0.00 | 70 | 1018.8 |
| 20260906145404 | 71 | 166 | 3.0 | 7.0 | 0.00 | 0.00 | 0.00 | 71 | 1019.2 |
| 20260906144404 | 71 | 219 | 4.0 | 8.0 | 0.00 | 0.00 | 0.00 | 71 | 1019.2 |
| 20260906143905 | 71 | 185 | 5.0 | 12.0 | 0.00 | 0.00 | 0.00 | 73 | 1019.2 |
| 20260906143404 | 71 | 122 | 3.0 | 12.0 | 0.00 | 0.00 | 0.00 | 74 | 1019.2 |
| 20260906142904 | 71 | 138 | 4.0 | 8.0 | 0.00 | 0.00 | 0.00 | 73 | 1019.3 |
| 20260906142404 | 70 | 100 | 1.0 | 9.0 | 0.00 | 0.00 | 0.00 | 73 | 1019.3 |
| 20260906141904 | 71 | 168 | 4.0 | 7.0 | 0.00 | 0.00 | 0.00 | 72 | 1019.3 |
| 20260906141404 | 71 | 144 | 2.0 | 6.0 | 0.00 | 0.00 | 0.00 | 72 | 1019.3 |
| 20260906140905 | 71 | 152 | 3.0 | 9.0 | 0.00 | 0.00 | 0.00 | 72 | 1019.3 |
| 20260906140404 | 71 | 130 | 3.0 | 7.0 | 0.00 | 0.00 | 0.00 | 71 | 1019.4 |
| 20260906135904 | 71 | 123 | 6.0 | 9.0 | 0.00 | 0.00 | 0.00 | 70 | 1019.4 |
| 20260906134905 | 72 | 120 | 5.0 | 8.0 | 0.00 | 0.00 | 0.00 | 70 | 1019.4 |
| 20260906134404 | 72 | 90 | 3.0 | 9.0 | 0.00 | 0.00 | 0.00 | 69 | 1019.4 |
| 20260906133904 | 73 | 102 | 4.0 | 7.0 | 0.00 | 0.00 | 0.00 | 68 | 1019.4 |
| 20260906133404 | 73 | 84 | 4.0 | 8.0 | 0.00 | 0.00 | 0.00 | 69 | 1019.4 |
| 20260906132404 | 73 | 120 | 6.0 | 12.0 | 0.00 | 0.00 | 0.00 | 67 | 1019.5 |
| 20260906131905 | 73 | 122 | 5.0 | 9.0 | 0.00 | 0.00 | 0.00 | 65 | 1019.5 |
| 20260906130404 | 77 | 96 | 4.0 | 9.0 | 0.00 | 0.00 | 0.00 | 60 | 1019.5 |
| 20260906125905 | 78 | 206 | 4.0 | 8.0 | 0.00 | 0.00 | 0.00 | 56 | 1019.5 |
| 20260906125404 | 78 | 137 | 4.0 | 8.0 | 0.00 | 0.00 | 0.00 | 47 | 1019.5 |
| 20260906124904 | 79 | 201 | 6.0 | 10.0 | 0.00 | 0.00 | 0.00 | 45 | 1019.4 |
| 20260906124404 | 80 | 177 | 5.0 | 12.0 | 0.00 | 0.00 | 0.00 | 45 | 1019.5 |
| 20260906123404 | 79 | 152 | 3.0 | 8.0 | 0.00 | 0.00 | 0.00 | 46 | 1020.1 |
| 20260906122904 | 79 | 185 | 5.0 | 9.0 | 0.00 | 0.00 | 0.00 | 48 | 1020.1 |
| 20260906121904 | 79 | 139 | 3.0 | 8.0 | 0.00 | 0.00 | 0.00 | 48 | 1020.1 |
| 20260906121404 | 78 | 170 | 4.0 | 10.0 | 0.00 | 0.00 | 0.00 | 51 | 1020.1 |
| 20260906120904 | 79 | 151 | 4.0 | 8.0 | 0.00 | 0.00 | 0.00 | 51 | 1020.1 |
| 20260906120404 | 78 | 224 | 5.0 | 8.0 | 0.00 | 0.00 | 0.00 | 51 | 1020.1 |
| 20260906115904 | 77 | 176 | 6.0 | 15.0 | 0.00 | 0.00 | 0.00 | 52 | 1020.1 |
| 20260906115404 | 77 | 180 | 6.0 | 10.0 | 0.00 | 0.00 | 0.00 | 53 | 1020.1 |
| 20260906114904 | 77 | 124 | 4.0 | 8.0 | 0.00 | 0.00 | 0.00 | 56 | 1020.1 |
| 20260906114404 | 76 | 143 | 4.0 | 8.0 | 0.00 | 0.00 | 0.00 | 59 | 1020.1 |
| 20260906113905 | 75 | 128 | 3.0 | 7.0 | 0.00 | 0.00 | 0.00 | 60 | 1020.4 |
| 20260906113405 | 76 | 69 | 3.0 | 7.0 | 0.00 | 0.00 | 0.00 | 59 | 1020.4 |
| 20260906112905 | 76 | 173 | 3.0 | 6.0 | 0.00 | 0.00 | 0.00 | 59 | 1020.4 |
| 20260906112404 | 75 | 172 | 4.0 | 12.0 | 0.00 | 0.00 | 0.00 | 61 | 1020.4 |
| 20260906111904 | 75 | 101 | 5.0 | 8.0 | 0.00 | 0.00 | 0.00 | 61 | 1020.4 |
| 20260906111404 | 75 | 104 | 1.0 | 6.0 | 0.00 | 0.00 | 0.00 | 62 | 1021.2 |
| 20260906110904 | 76 | 183 | 5.0 | 9.0 | 0.00 | 0.00 | 0.00 | 62 | 1021.2 |
| 20260906105404 | 74 | 161 | 4.0 | 7.0 | 0.00 | 0.00 | 0.00 | 64 | 1021.2 |
| 20260906104904 | 74 | 150 | 3.0 | 8.0 | 0.00 | 0.00 | 0.00 | 66 | 1021.2 |
| 20260906104404 | 73 | 74 | 5.0 | 8.0 | 0.00 | 0.00 | 0.00 | 64 | 1021.2 |
| 20260906103904 | 74 | 175 | 3.0 | 8.0 | 0.00 | 0.00 | 0.00 | 65 | 1021.2 |
| 20260906103405 | 73 | 171 | 3.0 | 10.0 | 0.00 | 0.00 | 0.00 | 66 | 1021.2 |
| 20260906102904 | 73 | 199 | 6.0 | 10.0 | 0.00 | 0.00 | 0.00 | 64 | 1021.2 |
| 20260906102404 | 73 | 174 | 6.0 | 10.0 | 0.00 | 0.00 | 0.00 | 65 | 1021.2 |
| 20260906101904 | 73 | 142 | 4.0 | 9.0 | 0.00 | 0.00 | 0.00 | 67 | 1021.2 |
| 20260906101404 | 72 | 194 | 5.0 | 12.0 | 0.00 | 0.00 | 0.00 | 66 | 1021.2 |
| 20260906100404 | 72 | 205 | 6.0 | 13.0 | 0.00 | 0.00 | 0.00 | 67 | 1021.2 |
| 20260906095404 | 72 | 118 | 3.0 | 9.0 | 0.00 | 0.00 | 0.00 | 70 | 1021.2 |
| 20260906094904 | 71 | 144 | 5.0 | 12.0 | 0.00 | 0.00 | 0.00 | 69 | 1021.2 |
| 20260906094405 | 70 | 170 | 5.0 | 12.0 | 0.00 | 0.00 | 0.00 | 71 | 1021.1 |
| 20260906093904 | 71 | 121 | 6.0 | 9.0 | 0.00 | 0.00 | 0.00 | 69 | 1021.1 |
| 20260906092904 | 71 | 131 | 3.0 | 10.0 | 0.00 | 0.00 | 0.00 | 70 | 1021.2 |
| 20260906092404 | 71 | 135 | 7.0 | 13.0 | 0.00 | 0.00 | 0.00 | 69 | 1021.2 |
| 20260906091404 | 70 | 141 | 3.0 | 14.0 | 0.00 | 0.00 | 0.00 | 71 | 1021.2 |
| 20260906090904 | 70 | 129 | 2.0 | 9.0 | 0.00 | 0.00 | 0.00 | 73 | 1021.2 |
| 20260906090405 | 70 | 88 | 5.0 | 9.0 | 0.00 | 0.00 | 0.00 | 73 | 1021.2 |
| 20260906085904 | 70 | 111 | 2.0 | 7.0 | 0.00 | 0.00 | 0.00 | 74 | 1021.2 |
| 20260906085404 | 69 | 119 | 5.0 | 9.0 | 0.00 | 0.00 | 0.00 | 74 | 1021.2 |
| 20260906084404 | 69 | 90 | 6.0 | 12.0 | 0.00 | 0.00 | 0.00 | 75 | 1021.5 |
| 20260906082905 | 68 | 133 | 4.0 | 12.0 | 0.00 | 0.00 | 0.00 | 74 | 1021.5 |
| 20260906081904 | 67 | 131 | 6.0 | 13.0 | 0.00 | 0.00 | 0.00 | 75 | 1021.3 |
| 20260906081404 | 67 | 137 | 5.0 | 12.0 | 0.00 | 0.00 | 0.00 | 76 | 1021.3 |
| 20260906080904 | 67 | 110 | 7.0 | 14.0 | 0.00 | 0.00 | 0.00 | 77 | 1021.5 |
| 20260906075404 | 66 | 111 | 2.0 | 9.0 | 0.00 | 0.00 | 0.00 | 82 | 1021.7 |
| 20260906074904 | 65 | 120 | 4.0 | 7.0 | 0.00 | 0.00 | 0.00 | 84 | 1021.7 |
| 20260906073905 | 64 | 124 | 4.0 | 9.0 | 0.00 | 0.00 | 0.00 | 89 | 1021.7 |
| 20260906073404 | 63 | 115 | 4.0 | 8.0 | 0.00 | 0.00 | 0.00 | 91 | 1021.7 |
| 20260906072904 | 62 | 138 | 2.0 | 5.0 | 0.00 | 0.00 | 0.00 | 92 | 1021.7 |
| 20260906072404 | 62 | 149 | 2.0 | 5.0 | 0.00 | 0.00 | 0.00 | 93 | 1022.2 |
| 20260906071904 | 60 | 111 | 3.0 | 6.0 | 0.00 | 0.00 | 0.00 | 93 | 1022.2 |
| 20260906071404 | 60 | 98 | 1.0 | 6.0 | 0.00 | 0.00 | 0.00 | 94 | 1022.2 |
| 20260906070904 | 58 | 92 | 1.0 | 5.0 | 0.00 | 0.00 | 0.00 | 93 | 1022.2 |
| 20260906070405 | 58 | 90 | 0.0 | 0.0 | 0.00 | 0.00 | 0.00 | 93 | 1022.2 |
| 20260906065904 | 57 | 96 | 0.0 | 0.0 | 0.00 | 0.00 | 0.00 | 94 | 1022.2 |
| 20260906065404 | 56 | 123 | 0.0 | 0.0 | 0.00 | 0.00 | 0.00 | 93 | 1022.2 |
| 20260906064904 | 55 | 123 | 0.0 | 0.0 | 0.00 | 0.00 | 0.00 | 93 | 1022.2 |
| 20260906064404 | 55 | 123 | 0.0 | 0.0 | 0.00 | 0.00 | 0.00 | 93 | 1022.2 |
| 20260906063904 | 55 | 123 | 0.0 | 0.0 | 0.00 | 0.00 | 0.00 | 93 | 1022.2 |
| 20260906063404 | 54 | 123 | 0.0 | 1.0 | 0.00 | 0.00 | 0.00 | 93 | 1022.2 |
| 20260906062404 | 54 | 123 | 0.0 | 0.0 | 0.00 | 0.00 | 0.00 | 93 | 1022.2 |
| 20260906061404 | 54 | 123 | 0.0 | 0.0 | 0.00 | 0.00 | 0.00 | 92 | 1022.4 |
| 20260906060904 | 54 | 123 | 0.0 | 0.0 | 0.00 | 0.00 | 0.00 | 92 | 1022.4 |
| 20260906060404 | 53 | 123 | 0.0 | 1.0 | 0.00 | 0.00 | 0.00 | 92 | 1022.4 |
| 20260906055904 | 54 | 113 | 0.0 | 0.0 | 0.00 | 0.00 | 0.00 | 92 | 1022.5 |
| 20260906054904 | 54 | 113 | 0.0 | 0.0 | 0.00 | 0.00 | 0.00 | 92 | 1022.4 |
| 20260906053905 | 54 | 113 | 0.0 | 1.0 | 0.00 | 0.00 | 0.00 | 92 | 1022.5 |
| 20260906053404 | 54 | 123 | 0.0 | 1.0 | 0.00 | 0.00 | 0.00 | 92 | 1022.5 |
| 20260906051904 | 54 | 121 | 0.0 | 0.0 | 0.00 | 0.00 | 0.00 | 92 | 1022.5 |
| 20260906051404 | 54 | 121 | 0.0 | 0.0 | 0.00 | 0.00 | 0.00 | 92 | 1022.5 |
| 20260906050404 | 54 | 121 | 0.0 | 0.0 | 0.00 | 0.00 | 0.00 | 91 | 1022.6 |
| 20260906045904 | 54 | 121 | 0.0 | 0.0 | 0.00 | 0.00 | 0.00 | 91 | 1022.6 |
| 20260906044404 | 54 | 121 | 0.0 | 0.0 | 0.00 | 0.00 | 0.00 | 91 | 1022.7 |
| 20260906043905 | 54 | 121 | 0.0 | 0.0 | 0.00 | 0.00 | 0.00 | 91 | 1022.7 |
| 20260906043404 | 54 | 121 | 0.0 | 0.0 | 0.00 | 0.00 | 0.00 | 91 | 1022.7 |
| 20260906042905 | 54 | 121 | 0.0 | 0.0 | 0.00 | 0.00 | 0.00 | 91 | 1022.7 |
| 20260906041404 | 55 | 121 | 0.0 | 0.0 | 0.00 | 0.00 | 0.00 | 91 | 1022.8 |
| 20260906040904 | 55 | 121 | 0.0 | 0.0 | 0.00 | 0.00 | 0.00 | 91 | 1022.8 |
| 20260906040404 | 55 | 121 | 0.0 | 0.0 | 0.00 | 0.00 | 0.00 | 91 | 1022.8 |
| 20260906035405 | 55 | 121 | 0.0 | 0.0 | 0.00 | 0.00 | 0.00 | 91 | 1023.1 |
| 20260906034904 | 55 | 121 | 0.0 | 0.0 | 0.00 | 0.00 | 0.00 | 91 | 1023.1 |
| 20260906034404 | 55 | 121 | 0.0 | 0.0 | 0.00 | 0.00 | 0.00 | 91 | 1023.1 |
| 20260906033904 | 55 | 121 | 0.0 | 0.0 | 0.00 | 0.00 | 0.00 | 91 | 1023.1 |
| 20260906033404 | 55 | 121 | 0.0 | 0.0 | 0.00 | 0.00 | 0.00 | 91 | 1023.1 |
| 20260906032904 | 55 | 124 | 0.0 | 0.0 | 0.00 | 0.00 | 0.00 | 91 | 1023.7 |
| 20260906032404 | 55 | 124 | 0.0 | 0.0 | 0.00 | 0.00 | 0.00 | 91 | 1023.7 |
| 20260906031904 | 55 | 125 | 0.0 | 2.0 | 0.00 | 0.00 | 0.00 | 91 | 1023.7 |
| 20260906031404 | 55 | 125 | 1.0 | 2.0 | 0.00 | 0.00 | 0.00 | 91 | 1023.7 |
| 20260906030904 | 55 | 125 | 0.0 | 0.0 | 0.00 | 0.00 | 0.00 | 91 | 1023.7 |
| 20260906030404 | 56 | 125 | 0.0 | 0.0 | 0.00 | 0.00 | 0.00 | 91 | 1023.8 |
| 20260906025404 | 56 | 125 | 0.0 | 1.0 | 0.00 | 0.00 | 0.00 | 91 | 1023.8 |
| 20260906024904 | 56 | 125 | 0.0 | 1.0 | 0.00 | 0.00 | 0.00 | 91 | 1023.8 |
| 20260906024405 | 56 | 125 | 0.0 | 0.0 | 0.00 | 0.00 | 0.00 | 91 | 1023.8 |
| 20260906023904 | 55 | 125 | 1.0 | 2.0 | 0.00 | 0.00 | 0.00 | 91 | 1023.8 |
| 20260906022904 | 55 | 123 | 0.0 | 0.0 | 0.00 | 0.00 | 0.00 | 91 | 1023.8 |
| 20260906022404 | 55 | 123 | 0.0 | 0.0 | 0.00 | 0.00 | 0.00 | 91 | 1023.8 |
| 20260906021904 | 55 | 123 | 0.0 | 0.0 | 0.00 | 0.00 | 0.00 | 91 | 1023.8 |
| 20260906021405 | 55 | 123 | 0.0 | 0.0 | 0.00 | 0.00 | 0.00 | 91 | 1023.8 |
| 20260906020904 | 55 | 123 | 0.0 | 0.0 | 0.00 | 0.00 | 0.00 | 91 | 1023.8 |
| 20260906020404 | 55 | 123 | 0.0 | 0.0 | 0.00 | 0.00 | 0.00 | 91 | 1023.8 |
| 20260906015904 | 55 | 123 | 0.0 | 0.0 | 0.00 | 0.00 | 0.00 | 91 | 1023.9 |
| 20260906015405 | 55 | 123 | 0.0 | 0.0 | 0.00 | 0.00 | 0.00 | 91 | 1023.9 |
| 20260906014404 | 55 | 123 | 0.0 | 0.0 | 0.00 | 0.00 | 0.00 | 91 | 1024.1 |
| 20260906013904 | 55 | 123 | 0.0 | 0.0 | 0.00 | 0.00 | 0.00 | 91 | 1024.1 |
| 20260906013404 | 55 | 123 | 0.0 | 0.0 | 0.00 | 0.00 | 0.00 | 91 | 1024.3 |
| 20260906012904 | 55 | 123 | 0.0 | 1.0 | 0.00 | 0.00 | 0.00 | 91 | 1024.3 |
| 20260906011904 | 54 | 93 | 0.0 | 0.0 | 0.00 | 0.00 | 0.00 | 91 | 1024.2 |
| 20260906011404 | 54 | 93 | 0.0 | 0.0 | 0.00 | 0.00 | 0.00 | 91 | 1024.2 |
| 20260906010904 | 54 | 93 | 0.0 | 0.0 | 0.00 | 0.00 | 0.00 | 91 | 1024.2 |
| 20260906005904 | 54 | 93 | 0.0 | 0.0 | 0.00 | 0.00 | 0.00 | 91 | 1025.0 |
| 20260906004904 | 54 | 93 | 0.0 | 0.0 | 0.00 | 0.00 | 0.00 | 91 | 1025.0 |
| 20260906004404 | 54 | 125 | 0.0 | 0.0 | 0.00 | 0.00 | 0.00 | 91 | 1025.0 |
| 20260906003904 | 54 | 152 | 0.0 | 0.0 | 0.00 | 0.00 | 0.00 | 91 | 1025.0 |
| 20260906003404 | 54 | 152 | 0.0 | 0.0 | 0.00 | 0.00 | 0.00 | 91 | 1025.0 |
| 20260906002904 | 54 | 152 | 0.0 | 0.0 | 0.00 | 0.00 | 0.00 | 91 | 1025.0 |
| 20260906002404 | 54 | 152 | 0.0 | 0.0 | 0.00 | 0.00 | 0.00 | 91 | 1025.0 |
| 20260906001904 | 54 | 152 | 0.0 | 0.0 | 0.00 | 0.00 | 0.00 | 91 | 1025.0 |
| 20260906001404 | 53 | 152 | 0.0 | 0.0 | 0.00 | 0.00 | 0.00 | 91 | 1025.0 |
| 20260906000904 | 53 | 152 | 0.0 | 0.0 | 0.00 | 0.00 | 0.00 | 90 | 1025.0 |
| 20260906000405 | 53 | 152 | 0.0 | 0.0 | 0.00 | 0.00 | 0.00 | 90 | 1025.0 |
| 20260905235904 | 53 | 161 | 0.0 | 0.0 | 0.00 | 0.00 | 0.00 | 90 | 1025.0 |
| 20260905234904 | 53 | 185 | 0.0 | 0.0 | 0.00 | 0.00 | 0.00 | 90 | 1025.0 |
| 20260905234404 | 53 | 185 | 0.0 | 0.0 | 0.00 | 0.00 | 0.00 | 90 | 1025.0 |
| 20260905233904 | 53 | 185 | 0.0 | 0.0 | 0.00 | 0.00 | 0.00 | 90 | 1025.0 |
| 20260905233404 | 53 | 185 | 0.0 | 0.0 | 0.00 | 0.00 | 0.00 | 90 | 1025.0 |
| 20260905232904 | 53 | 185 | 0.0 | 0.0 | 0.00 | 0.00 | 0.00 | 90 | 1025.0 |
| 20260905232404 | 54 | 185 | 0.0 | 0.0 | 0.00 | 0.00 | 0.00 | 90 | 1025.0 |
| 20260905231904 | 54 | 185 | 0.0 | 0.0 | 0.00 | 0.00 | 0.00 | 90 | 1025.0 |
| 20260905231404 | 54 | 185 | 0.0 | 0.0 | 0.00 | 0.00 | 0.00 | 90 | 1025.0 |
| 20260905230904 | 54 | 185 | 0.0 | 0.0 | 0.00 | 0.00 | 0.00 | 89 | 1025.0 |
| 20260905225904 | 54 | 185 | 0.0 | 0.0 | 0.00 | 0.00 | 0.00 | 89 | 1024.9 |
| 20260905225404 | 54 | 185 | 0.0 | 0.0 | 0.00 | 0.00 | 0.00 | 89 | 1024.9 |
| 20260905224904 | 54 | 185 | 0.0 | 0.0 | 0.00 | 0.00 | 0.00 | 89 | 1024.9 |
| 20260905224404 | 54 | 185 | 0.0 | 0.0 | 0.00 | 0.00 | 0.00 | 89 | 1024.8 |